Weather History for Chadron, NE

Change the Weather History Date:

Sunday, October 28, 2012

  Actual Average Record
Temperature  
Mean Temperature 42 °F 43 °F  
Max Temperature 61 °F 59 °F 85 °F (1990)
Min Temperature 23 °F 27 °F -10 °F (1925)
Degree Days  
Heating Degree Days 23 22  
Month to date heating degree days 511 473  
Since 1 July heating degree days 628 684  
Cooling Degree Days 0 0  
Month to date cooling degree days 0 0  
Year to date cooling degree days 1167 710  
Moisture  
Dew Point 30 °F    
Average Humidity 64    
Maximum Humidity 92    
Minimum Humidity 36    
Precipitation  
Precipitation 0.00 in 0.04 in 0.56 in (2009)
Month to date precipitation 0.78 1.22  
Year to date precipitation 7.26 16.82  
Sea Level Pressure  
Sea Level Pressure 30.08 in    
Wind  
Wind Speed 2 mph (WSW)    
Max Wind Speed 13 mph    
Max Gust Speed 18 mph    
Visibility 10 miles    
Events      
T = Trace of Precipitation, MM = Missing Value Source: NWS Daily Summary

Daily Weather History Graph

Daily Weather History Graph

Search for Another Location

Airport:

Trip Planner

Search our weather history database for the weather conditions in past years. The results will help you decide how hot, cold, wet, or windy it might be!

Date:

Astronomy

Oct. 28, 2012 Rise Set
Actual Time 7:22 AM MDT 5:49 PM MDT
Civil Twilight 6:53 AM MDT 6:18 PM MDT
Nautical Twilight 6:19 AM MDT 6:51 PM MDT
Astronomical Twilight 5:46 AM MDT 7:24 PM MDT
Moon 5:08 PM MDT (10/28) 6:16 AM MDT (10/28)
Length of Visible Light 11h 25m
Length of Day
10h 27m
Waxing Gibbous, 99% of the Moon is Illuminated
Oct 28
Waxing Gibbous
Oct 29
Full
Nov 6
Last Quarter
Nov 13
New
Nov 20
First Quarter

Hourly Weather History & Observations

Time (MDT) Temp. Windchill Dew Point Humidity Pressure Visibility Wind Dir Wind Speed Gust Speed Precip Events Conditions
12:53 AM 26.1 °F - 21.9 °F 84% 30.19 in 10.0 mi Calm Calm - N/A   Clear
1:53 AM 26.1 °F - 23.0 °F 88% 30.17 in 10.0 mi Calm Calm - N/A   Clear
2:53 AM 26.1 °F - 23.0 °F 88% 30.14 in 10.0 mi Calm Calm - N/A   Clear
3:53 AM 26.1 °F 20.5 °F 23.0 °F 88% 30.13 in 10.0 mi WSW 4.6 mph - N/A   Overcast
4:53 AM 24.1 °F 19.7 °F 21.9 °F 91% 30.15 in 10.0 mi NNE 3.5 mph - N/A   Clear
5:53 AM 25.0 °F - 21.9 °F 88% 30.19 in 10.0 mi Calm Calm - N/A   Mostly Cloudy
6:53 AM 26.1 °F 21.9 °F 23.0 °F 88% 30.18 in 10.0 mi WSW 3.5 mph - N/A   Clear
7:53 AM 26.1 °F 20.5 °F 23.0 °F 88% 30.17 in 9.0 mi WSW 4.6 mph - N/A   Clear
8:53 AM 28.9 °F 25.2 °F 26.1 °F 89% 30.17 in 9.0 mi West 3.5 mph - N/A   Clear
9:53 AM 33.1 °F - 28.0 °F 82% 30.15 in 10.0 mi Calm Calm - N/A   Clear
11:53 AM 46.9 °F - 32.0 °F 56% 30.06 in 10.0 mi Calm Calm - N/A   Clear
12:53 PM 51.1 °F - 33.1 °F 50% 30.03 in 10.0 mi Calm Calm - N/A   Clear
1:53 PM 57.0 °F - 34.0 °F 42% 29.98 in 10.0 mi Calm Calm - N/A   Clear
2:53 PM 60.1 °F - 33.1 °F 36% 29.96 in 10.0 mi West 10.4 mph - N/A   Clear
3:53 PM 60.1 °F - 34.0 °F 38% 29.96 in 10.0 mi West 6.9 mph - N/A   Mostly Cloudy
4:53 PM 59.0 °F - 36.0 °F 42% 29.97 in 10.0 mi WSW 4.6 mph - N/A   Scattered Clouds
5:53 PM 51.1 °F - 37.0 °F 59% 30.00 in 10.0 mi Calm Calm - N/A   Partly Cloudy
6:53 PM 48.9 °F - 37.9 °F 66% 30.01 in 10.0 mi SSE 5.8 mph - N/A   Mostly Cloudy
7:53 PM 44.1 °F - 37.0 °F 76% 30.04 in 10.0 mi Calm Calm - N/A   Clear
8:53 PM 45.0 °F 43.5 °F 37.9 °F 76% 30.05 in 10.0 mi WSW 3.5 mph - N/A   Overcast
9:53 PM 43.0 °F - 37.9 °F 82% 30.06 in 10.0 mi Calm Calm - N/A   Partly Cloudy
10:53 PM 39.9 °F - 36.0 °F 86% 30.05 in 10.0 mi Calm Calm - N/A   Clear
11:53 PM 35.1 °F 31.0 °F 34.0 °F 96% 30.04 in 10.0 mi WSW 4.6 mph - N/A   Clear